sat.trackr.live / text

‹ back to catalog

SATGUS

NORAD 62713 · 2025-009DJ

PAYLOAD ACTIVE UNKNOWN

§ Identity

Operator
Country
US
Launch date
2025-01-14
Launch site
AFWTR
Launch vehicle
Mass (kg)
RCS (m²)

External: N2YO · Heavens-Above · Gunter

§ Orbital elements

Epoch: 2026-05-25T03:10:05.371968Z

Period
95.94 min
Inclination
97.6986°
Eccentricity
0.0008623
Mean motion
15.00867455 rev/d
Perigee alt
558.2 km
Apogee alt
570.2 km
Semi-major
6,942.4 km
B*
4.6785e-4
RAAN
226.7284°
Arg perigee
179.1723°
Mean anomaly
180.9517°
Rev number
7,410

§ Raw data

SATGUS1 62713U 25009DJ  26145.13200662  .00005897  00000+0  46785-3 0  99942 62713  97.6986 226.7284 0008623 179.1723 180.9517 15.00867455 74100

JSON: /api/v1/satellites/62713 · /tle

For live sub-satellite position, see the globe view (requires WebGL).

§ Visibility from observer

Set your observer location to see the next 7 days of passes ≥ 10°. The values pass through the URL so the page stays shareable.

No JS? Fill the form by hand. The geolocation button needs JavaScript.

§ Radio — SatNOGS DB

ModeDescriptionDownlinkUplink
FSK Mode U - Transmitter 400.200 MHz
BPSK S-band telemetry 2.215 GHz

2 transmitters · refreshed weekly from db.satnogs.org